Regional Weather Roundup
Issued by NWS Wakefield, VA

Home | Current Version | Previous Version | Text Only | Print | Product List | Glossary On
Versions: 1 2 3 4 5 6 7 8 9 10 11 12 13 14 15 16 17 18 19 20 21 22 23 24 25 26 27 28 29 30 31 32 33 34 35 36 37 38 39 40 41 42 43 44 45 46 47 48 49 50
000
ASUS41 KAKQ 292315
RWRAKQ

REGIONAL WEATHER ROUNDUP
NATIONAL WEATHER SERVICE WAKEFIELD VA
700 PM EDT MON JUN 29 2015

Note: "fair" indicates few or no clouds below 12,000 feet with no
significant weather and/or obstructions to visibility. * = Denotes
station may not report precipitation (e.g., rain,snow,etc.),
thunder or fog.

VAZ042-051-052>054-056-300000-
NORTHERN VIRGINIA

CITY           SKY/WX    TMP DP  RH WIND       PRES   REMARKS
WASH NATIONAL  MOSUNNY   81  58  45 S9        29.93S
DULLES         MOSUNNY   78  56  46 S9        29.92F
FORT BELVOIR   NOT AVBL
QUANTICO       SUNNY     81  55  40 S9        29.93S
FREDERICKSBRG* SUNNY     84  56  39 SW6       29.92S
STAFFORD*      SUNNY     79  55  43 S5        29.97S
WARRENTON      SUNNY     80  61  53 S6        29.92S
CULPEPER*      SUNNY     78  57  48 S5        29.93S
MANASSAS*      SUNNY     81  55  41 S8          N/A
LEESBURG*      SUNNY     81  59  47 S10       29.93S
WINCHESTER     PTSUNNY   77  59  53 SE6       29.92S
FRONT ROYAL*   CLOUDY    75  59  57 S5        29.90F
LURAY*         MOCLDY    77  61  57 S6        29.93S
$$

VAZ048-049-060>072-079>083-300000-
CENTRAL AND SOUTH CENTRAL VIRGINIA

CITY           SKY/WX    TMP DP  RH WIND       PRES   REMARKS
RICHMOND       MOSUNNY   82  60  47 SW8       29.93F
CHESTERFIELD*  NOT AVBL
PETERSBURG*    SUNNY     83  68  60 CALM      29.94S
HANOVER        MOSUNNY   81  60  48 S10       29.94F
TAPPAHANNOCK*  SUNNY     81  55  40 S3        29.94S HAZE
QUINTON*       FAIR      82  63  52 CALM      29.93S
CHARLOTTSVILLE PTSUNNY   77  58  51 S9        29.92F
GORDONSVILLE*  FAIR      79  61  53 S5        29.92S
ORANGE*        SUNNY     81  59  47 SE5       29.94S
LOUISA*        SUNNY     81  61  50 S3        29.93R
BUMPASS*       FAIR      80  60  50 CALM      29.93S
FARMVILLE*     PTSUNNY   79  63  58 CALM      29.92S
CREWE*         FAIR      81  63  54 CALM      29.93S
FORT PICKETT*  FAIR      81  62  52 S8        29.94S
CHASE CITY*    FAIR      84  65  53 CALM      29.93S
CLARKSVILLE*   FAIR      79  64  61 SE5       29.92S
SOUTH HILL*    SUNNY     82  63  51 CALM      29.99S
LAWRENCEVILLE* NOT AVBL
EMPORIA*       SUNNY     82  64  54 E3        29.94S
$$

VAZ088>098-300000-
SOUTHEAST VIRGINIA

CITY           SKY/WX    TMP DP  RH WIND       PRES   REMARKS
NORFOLK        SUNNY     81  62  52 S10       29.94S
VIRGINIA BEACH MOSUNNY   80  64  58 SE9       29.95S
NORFOLK NAVAL  MOSUNNY   80  64  58 SE7       29.95F
WEST POINT*    SUNNY     84  57  39 S5        29.95S
SALUDA*        FAIR      81  62  51 CALM      29.94S
NEWPORT NEWS   SUNNY     79  63  57 E9        29.95R
LANGLEY AFB    SUNNY     78  64  62 E9        29.93S
FORT EUSTIS    SUNNY     82  64  53 E7        29.93R
WILLIAMSBURG*  SUNNY     82  68  61 CALM      29.95S
HR EXEC AP*    FAIR      79  66  65 E6        29.96S
FRANKLIN*      SUNNY     83  65  54 E5        29.94R
WAKEFIELD      SUNNY     85  62  46 CALM      29.94R
$$

VAZ020-022-025-037-045-300000-
WEST CENTRAL AND SOUTHWEST VIRGINIA

CITY           SKY/WX    TMP DP  RH WIND       PRES   REMARKS
STAUNTON*      CLOUDY    77  60  55 S6        29.96S
WAYNESBORO*    CLOUDY    73  58  58 S6        29.95F
HOT SPRINGS VA CLOUDY    65  57  74 S9        30.03S
LYNCHBURG      MOSUNNY   77  60  55 S7        29.95S
DANVILLE       MOSUNNY   79  66  64 CALM      29.93R
SOUTH BOSTON*  FAIR      82  64  54 MISG      29.92F
MARTINSVILLE   CLOUDY    79  64  60 CALM      29.97S
ROANOKE        CLOUDY    77  56  48 S8        29.95S
BLACKSBURG     MOSUNNY   74  58  56 S8        30.01R
DUBLIN*        MOSUNNY   76  58  53 S9        30.00R
MARION*        PTSUNNY   75  60  58 CALM      30.02R
HILLSVILLE*    MOSUNNY   72  58  61 S7        30.03S
RICHLANDS*     MOCLDY    71  61  69 S7        29.99R
WISE*          PTSUNNY   72  59  64 S12       29.99R
ABINGDON*      MOSUNNY   78  61  55 SW9       29.97R
$$

MDZ021>025-VAZ099-100-300000-
SOUTHERN MARYLAND AND THE DELMARVA PENINSULA

CITY           SKY/WX    TMP DP  RH WIND       PRES   REMARKS
PATUXENT RIVER MOSUNNY   78  58  49 SE9       29.94S
BAY BRIDGE APT   N/A     79  50  36 SW5       29.93S
LEONARDTOWN    SUNNY     77  59  53 SE3       29.96S
DOVER          NOT AVBL
GEORGETOWN     MOSUNNY   79  56  45 SW7       29.95S
EASTON         SUNNY     81  57  44 SW10      29.98S
CAMBRIDGE      SUNNY     79  54  41 S5        29.94S
SALISBURY      SUNNY     78  57  48 W5        29.95F
OCEAN CITY     SUNNY     76  62  62 SW8       29.96R
WALLOPS ISLAND SUNNY     77  62  59 S8        29.96F
ACCOMACK*      SUNNY     79  63  57 S9        29.95F
$$

NCZ012>017-030>032-300000-
NORTH CENTRAL AND EASTERN NORTH CAROLINA

CITY           SKY/WX    TMP DP  RH WIND       PRES   REMARKS
ROANOKE RAPIDS FAIR      79  68  69 CALM      29.93S
RALEIGH        MOSUNNY   84  61  45 SE6       29.93S
ELIZABETH CITY MOSUNNY   80  69  69 E9        29.95S
AHOSKIE*       SUNNY     80  69  69 NE3       29.93S
EDENTON*         N/A     83  66  57 SE9       29.94S
CURRITUCK*     MOSUNNY   81  64  57 E5        29.96S
KILL DEVIL HLS MOSUNNY   81  67  62 SE7       29.95S
MANTEO         MOSUNNY   79  69  70 SE8       29.96S
CAPE HATTERAS  CLOUDY    79  71  76 CALM      29.96R
TARBORO*         N/A     85  67  55 SE5       29.93S
GOLDSBORO      SUNNY     85  70  60 S5        29.91R
WASHINGTON     SUNNY     83  66  57 SE7       29.94R
GREENVILLE     MOSUNNY   82  68  61 S7        29.95R
NEW BERN       MOSUNNY   84  66  54 S7        29.95R
WILMINGTON     MOSUNNY   83  72  69 SE8       29.94R
$$

VAZ048-300000-
ELSEWHERE

CITY           SKY/WX    TMP DP  RH WIND       PRES   REMARKS
HARRISBURG PA  MOSUNNY   78  57  48 SW5       29.90S
BALTIMORE      MOSUNNY   80  52  37 S5        29.91F
ANNAPOLIS      SUNNY     80  51  36 S8        29.92F
ANDREWS AFB    SUNNY     78  58  49 S10       29.93S
PHILADELPHIA   MOSUNNY   81  54  39 SW7       29.92S
HENDERSON NC   MOSUNNY   82  60  46 S3        29.93F
GREENSBORO     PTSUNNY   83  55  38 S12       29.93S
ROCKY MOUNT    SUNNY     85  65  51 CALM      29.92S
$$

VAZ100-300000-
MARINE

STATION/POSITION TIME  TEMP    WIND        PRES    WAVE   SWELL
                       AIR SEA DIR/SP/G            HT/PER HT/PER
                 (UTC) (F)     (DEG/KT/KT) (MB)    (FT/S) (FT/S)
BRANDYWINE LGT   2200   78 73  260/  8/  9 1014.1R
CAPE MAY NJ      2200   76 78  150/  4/  5 1013.8R
LEWES DE         2200   79 73  290/ 10/ 11 1013.8R
15NM E FENWICK I 2250   74 72              1014.0R   4/ 9
OCEAN-CITY-INLET 2200   74 73  210/ 11/ 13 1014.1R
WACHAPREAGUE VA  2200   77 82  150/  8/ 10 1014.5S
GOOSES REEF MD   2300   78 78  160/ 14/ 17 1014.7F
COVE POINT MD    2200   76     180/ 14/ 16 1014.6F
SOLOMONS ISLAND  2200      78                N/A
BISHOPS HEAD MD  2200   77     140/  8/ 10 1014.0F
PINEY POINT MD   2200          130/  9/  9   N/A
CAMBRIDGE MD     2200   80 79  210/  5/  8 1013.9R
LEWISETTA VA     2200   81 81  230/  8/  9 1013.5F
RAPPAHANNOCK LGT 2200          130/  7/  8 1014.8F
STINGRAY PT      2300   80 81  170/  8/ 10 1014.1F
YORK RVR RNG VA  2200   77     120/  9/ 10 1013.6F
YORKTOWN VA      2200   79 81  100/  8/ 10 1013.7F
JAMESTOWN VA     2300   81 83  130/  6/  8   N/A
DOMINION TERM VA 2200   77      90/ 10/ 13 1013.9F
KIPTOPEKE VA     2200      85  150/  6/  9   N/A
CHES BAY BRIDGE  2200   78 77   80/  8/ 15 1013.8F
CAPE HENRY VA    2200   77     120/ 11/ 13 1012.8F
CHESAPEAKE LGHT  2200   75     130/ 10/ 11 1015.1F
WILLOUBY STN VA  2200   76      80/ 10/ 11 1014.8F
CAPE HENRY BUOY  2228      78                N/A     3/ 8
1ST LANDING BUOY 2300      78              1013.9F   2/ 3
CAPE CHARLES BUO 2226      78                N/A     2/ 8   2/ 8
OFFSHORE WE BUOY 2211      79                N/A     3/ 7   3/ 7
64NM E OF VA BCH 2250   77 77   90/  6/  6 1014.5F   3/ 8   3/ 8
DUCK PIER NC     2200   78 68  100/  9/ 10 1013.6S
44100 DUCK FRF   2224      77                N/A     3/ 8
44056 DUCK FRF   2211      74                N/A     2/ 8
OREGON INLET NC  2200   78 80   60/  4/  8 1014.4S
HATTERAS NC      2200   80 81  170/  2/  4 1013.8F
DIAMOND SHLS NC  2250   79 81  260/  4/  8 1014.2R   4/ 8   3/ 8
CAPE LOOKOUT NC  2300   81     210/ 10/ 13 1013.8R
$$


USA.gov is the U.S. government's official web portal to all federal, state and local government web resources and services.